Back to catalog

STARLINK-11084

AliveCommunicationsVLEO
NORAD 59717·PAYLOAD·🇺🇸 United States

Launched May 10, 2024 from Vandenberg Space Force Base

Loading…

Next Passes (next 24 hours)

TLE

FreshSource: CelesTrak SupGP

Epoch: Sep 14, 2026, 21:35 UTC

1 59717C 24088K   26257.89979167 -.00049581  00000+0 -40848-3 0  2571
2 59717  53.1559 113.3849 0001198  95.8736 199.7372 15.69730148    18

Track STARLINK-11084 in real time with AllMySat

Download on the App Store